Regional Weather Roundup
Issued by NWS

Home | Current Version | Previous Version | Text Only | Print | Product List | Glossary Off
Versions: 1 2 3 4 5 6 7 8 9 10 11 12 13 14 15 16 17 18 19 20 21 22 23 24 25 26 27 28 29 30 31 32 33 34 35 36 37 38 39 40 41 42 43 44 45 46 47 48 49 50

000
ASUS43 KFSD 020710
RWRSD

WEATHER ROUNDUP FOR SOUTH DAKOTA
NATIONAL WEATHER SERVICE SIOUX FALLS SD
100 AM CST MON MAR 02 2015

NOTE: "FAIR" INDICATES FEW OR NO CLOUDS BELOW 12,000 FEET WITH NO
SIGNIFICANT WEATHER AND/OR OBSTRUCTIONS TO VISIBILITY.


SDZ001>005-009-010-012>017-020800-
NORTHWEST AND NORTH CENTRAL SOUTH DAKOTA

CITY           SKY/WX    TMP DP  RH WIND       PRES   REMARKS
BUFFALO          N/A      9   3  77 S8        30.13F WCI  -3
FAITH            N/A     12   6  77 SE14      30.28F WCI  -3
MOBRIDGE       PTCLDY    10   6  84 SE7       30.34F WCI  -1
$$

SDZ012>016-024>037-041>051-057-063-072>074-020800-
SOUTHWEST AND SOUTH CENTRAL SOUTH DAKOTA

CITY           SKY/WX    TMP DP  RH WIND       PRES   REMARKS
RAPID CTY ARPT PTCLDY     9   4  80 S5        30.25F WCI   1
PIERRE         PTCLDY    10   8  92 CALM      30.38F
CUSTER         PTCLDY     3  -1  83 CALM      30.11F
ELLSWORTH AFB  PTCLDY    12   6  76 S9        30.22F WCI   0
PHILIP         CLEAR      4  -1  80 W3        30.34F
PINE RIDGE     MOCLDY    21   8  57 S3        30.26F
WINNER         FAIR      14   3  61 SE6       30.38F WCI   5
$$

SDZ004>011-016>023-039-040-020800-
NORTHEAST SOUTH DAKOTA

CITY           SKY/WX    TMP DP  RH WIND       PRES   REMARKS
ABERDEEN       PTCLDY     1  -4  79 SW7       30.43F WCI -12
WATERTOWN      MOCLDY     6   2  83 CALM      30.40S
SISSETON         N/A      8   2  76 N5        30.41F WCI   0
$$

SDZ017-020-022-023-036>040-048>070-020800-
SOUTHEAST SOUTH DAKOTA

CITY           SKY/WX    TMP DP  RH WIND       PRES   REMARKS
SIOUX FALLS    CLEAR     13   9  84 CALM      30.44S
HURON          PTCLDY     5   2  87 CALM      30.44F
CHAMBERLAIN    CLEAR     10   6  84 SE3       30.41S
MITCHELL       CLEAR     14  10  84 CALM      30.46S
YANKTON        PTCLDY    16   9  73 SW5       30.48R WCI   9
$$

ABBREVIATIONS USED IN REMARKS
   TC - TEMPERATURE IN CELSIUS
  WCI - WIND CHILL INDEX
   HX - HEAT INDEX
  VSB - VISIBILITY




USA.gov is the U.S. government's official web portal to all federal, state and local government web resources and services.